| time (UTC) | temp F | wind direction | speed knots | gust knots | rain 1hr in | rain 24hr in | rain mn in | humidity % | barometer mb |
| 20260507181903 | 59 | 263 | 1.7 | 4.3 | 0.00 | 0.00 | 0.00 | 63 | 943.4 |
| 20260507180904 | 59 | 266 | 1.7 | 2.6 | 0.00 | 0.00 | 0.00 | 62 | 943.4 |
| 20260507175903 | 59 | 267 | 1.7 | 1.7 | 0.00 | 0.00 | 0.00 | 61 | 943.4 |
| 20260507175404 | 60 | 269 | 2.6 | 4.3 | 0.00 | 0.00 | 0.00 | 60 | 943.3 |
| 20260507174903 | 60 | 270 | 2.6 | 5.2 | 0.00 | 0.00 | 0.00 | 59 | 943.3 |
| 20260507173903 | 60 | 261 | 2.6 | 4.3 | 0.00 | 0.00 | 0.00 | 58 | 943.1 |
| 20260507173404 | 61 | 262 | 1.7 | 4.3 | 0.00 | 0.00 | 0.00 | 57 | 943.1 |
| 20260507172904 | 61 | 287 | 1.7 | 4.3 | 0.00 | 0.00 | 0.00 | 56 | 943.1 |
| 20260507172404 | 62 | 289 | 1.7 | 4.3 | 0.00 | 0.00 | 0.00 | 56 | 943.1 |
| 20260507171903 | 62 | 314 | 1.7 | 4.3 | 0.00 | 0.00 | 0.00 | 55 | 943.1 |
| 20260507171404 | 63 | 286 | 0.9 | 1.7 | 0.00 | 0.00 | 0.00 | 53 | 943.1 |
| 20260507170904 | 63 | 316 | 0.9 | 1.7 | 0.00 | 0.00 | 0.00 | 56 | 943.1 |
| 20260507165904 | 63 | 316 | 0.9 | 2.6 | 0.00 | 0.00 | 0.00 | 55 | 943.1 |
| 20260507165404 | 63 | 337 | 1.7 | 4.3 | 0.00 | 0.00 | 0.00 | 55 | 943.1 |
| 20260507164404 | 65 | 332 | 1.7 | 4.3 | 0.00 | 0.00 | 0.00 | 53 | 943.1 |
| 20260507163903 | 65 | 327 | 1.7 | 4.3 | 0.00 | 0.00 | 0.00 | 52 | 943.1 |
| 20260507163404 | 65 | 339 | 1.7 | 4.3 | 0.00 | 0.00 | 0.00 | 52 | 943.1 |
| 20260507162904 | 65 | 316 | 1.7 | 4.3 | 0.00 | 0.00 | 0.00 | 52 | 943.1 |
| 20260507162404 | 66 | 350 | 1.7 | 4.3 | 0.00 | 0.00 | 0.00 | 52 | 943.1 |
| 20260507161903 | 67 | 1 | 1.7 | 4.3 | 0.00 | 0.00 | 0.00 | 51 | 943.1 |
| 20260507161404 | 67 | 30 | 1.7 | 5.2 | 0.00 | 0.00 | 0.00 | 50 | 943.1 |
| 20260507160405 | 68 | 335 | 1.7 | 5.2 | 0.00 | 0.00 | 0.00 | 49 | 943.1 |
| 20260507153904 | 67 | 12 | 1.7 | 5.2 | 0.00 | 0.00 | 0.00 | 50 | 943.1 |
| 20260507153403 | 67 | 344 | 1.7 | 5.2 | 0.00 | 0.00 | 0.00 | 52 | 943.1 |
| 20260507152404 | 66 | 56 | 1.7 | 4.3 | 0.00 | 0.00 | 0.00 | 55 | 943.1 |
| 20260507151904 | 64 | 104 | 1.7 | 2.6 | 0.00 | 0.00 | 0.00 | 57 | 943.1 |
| 20260507151404 | 63 | 331 | 4.3 | 2.6 | 0.00 | 0.00 | 0.00 | 60 | 943.1 |
| 20260507150903 | 62 | 311 | 4.3 | 4.3 | 0.00 | 0.00 | 0.00 | 59 | 943.1 |
| 20260507150404 | 63 | 35 | 4.3 | 7.0 | 0.00 | 0.00 | 0.00 | 58 | 943.1 |
| 20260507145404 | 62 | 12 | 2.6 | 6.1 | 0.00 | 0.00 | 0.00 | 58 | 943.1 |
| 20260507144904 | 62 | 344 | 2.6 | 5.2 | 0.00 | 0.00 | 0.00 | 58 | 943.1 |
| 20260507144403 | 62 | 6 | 4.3 | 6.1 | 0.00 | 0.00 | 0.00 | 58 | 943.1 |
| 20260507143903 | 62 | 306 | 4.3 | 7.0 | 0.00 | 0.00 | 0.00 | 57 | 943.1 |
| 20260507143404 | 62 | 312 | 4.3 | 7.0 | 0.00 | 0.00 | 0.00 | 57 | 943.1 |
| 20260507142903 | 63 | 304 | 4.3 | 6.1 | 0.00 | 0.00 | 0.00 | 57 | 943.1 |
| 20260507142403 | 63 | 346 | 2.6 | 6.1 | 0.00 | 0.00 | 0.00 | 56 | 943.1 |
| 20260507141404 | 64 | 328 | 4.3 | 4.3 | 0.00 | 0.00 | 0.00 | 54 | 943.1 |
| 20260507140403 | 66 | 301 | 2.6 | 7.0 | 0.00 | 0.00 | 0.00 | 52 | 943.1 |
| 20260507135904 | 66 | 343 | 2.6 | 7.0 | 0.00 | 0.00 | 0.00 | 53 | 943.1 |
| 20260507135403 | 67 | 273 | 2.6 | 7.0 | 0.00 | 0.00 | 0.00 | 54 | 943.3 |
| 20260507134404 | 65 | 19 | 2.6 | 8.7 | 0.00 | 0.00 | 0.00 | 59 | 943.3 |
| 20260507133904 | 64 | 54 | 2.6 | 8.7 | 0.00 | 0.00 | 0.00 | 61 | 943.3 |
| 20260507133404 | 64 | 348 | 4.3 | 7.0 | 0.00 | 0.00 | 0.00 | 59 | 943.3 |
| 20260507132904 | 64 | 22 | 4.3 | 7.0 | 0.00 | 0.00 | 0.00 | 58 | 943.3 |
| 20260507132404 | 65 | 335 | 4.3 | 7.0 | 0.00 | 0.00 | 0.00 | 59 | 943.2 |
| 20260507131906 | 65 | 29 | 4.3 | 7.0 | 0.00 | 0.00 | 0.00 | 59 | 943.2 |
| 20260507130903 | 65 | 16 | 2.6 | 6.1 | 0.00 | 0.03 | 0.00 | 62 | 943.4 |
| 20260507130403 | 64 | 13 | 4.3 | 6.1 | 0.00 | 0.04 | 0.00 | 63 | 943.4 |
| 20260507125904 | 64 | 13 | 4.3 | 7.0 | 0.00 | 0.05 | 0.00 | 62 | 943.4 |
| 20260507125403 | 64 | 286 | 1.7 | 7.0 | 0.00 | 0.07 | 0.00 | 61 | 943.4 |
| 20260507124905 | 64 | 328 | 1.7 | 5.2 | 0.00 | 0.07 | 0.00 | 64 | 943.4 |
| 20260507124403 | 63 | 50 | 4.3 | 5.2 | 0.00 | 0.08 | 0.00 | 66 | 943.4 |
| 20260507123904 | 62 | 338 | 4.3 | 6.1 | 0.00 | 0.09 | 0.00 | 66 | 943.4 |
| 20260507123404 | 62 | 288 | 4.3 | 6.1 | 0.00 | 0.10 | 0.00 | 67 | 943.4 |
| 20260507122904 | 62 | 67 | 4.3 | 6.1 | 0.00 | 0.14 | 0.00 | 66 | 943.4 |
| 20260507122404 | 62 | 308 | 4.3 | 11.3 | 0.00 | 0.18 | 0.00 | 65 | 943.4 |
| 20260507121903 | 62 | 292 | 4.3 | 11.3 | 0.00 | 0.19 | 0.00 | 68 | 943.4 |
| 20260507121403 | 62 | 275 | 1.7 | 4.3 | 0.00 | 0.20 | 0.00 | 69 | 943.4 |
| 20260507120403 | 61 | 264 | 2.6 | 4.3 | 0.00 | 0.22 | 0.00 | 71 | 943.3 |
| 20260507115904 | 60 | 260 | 2.6 | 4.3 | 0.00 | 0.23 | 0.00 | 72 | 943.3 |
| 20260507114903 | 60 | 64 | 2.6 | 7.8 | 0.00 | 0.27 | 0.00 | 72 | 943.5 |
| 20260507113903 | 58 | 333 | 1.7 | 7.0 | 0.00 | 0.28 | 0.00 | 73 | 943.6 |
| 20260507113404 | 58 | 60 | 2.6 | 4.3 | 0.00 | 0.28 | 0.00 | 75 | 943.6 |
| 20260507112404 | 56 | 277 | 5.2 | 7.0 | 0.00 | 0.28 | 0.00 | 73 | 943.7 |
| 20260507111905 | 56 | 331 | 5.2 | 7.0 | 0.00 | 0.28 | 0.00 | 74 | 943.7 |
| 20260507105904 | 56 | 246 | 5.2 | 11.3 | 0.00 | 0.28 | 0.00 | 75 | 943.7 |
| 20260507104903 | 55 | 241 | 1.7 | 6.1 | 0.00 | 0.28 | 0.00 | 75 | 943.7 |
| 20260507104403 | 55 | 275 | 4.3 | 5.2 | 0.00 | 0.28 | 0.00 | 76 | 943.7 |
| 20260507103903 | 55 | 251 | 4.3 | 6.1 | 0.00 | 0.28 | 0.00 | 74 | 943.8 |
| 20260507103404 | 55 | 324 | 6.1 | 10.4 | 0.00 | 0.28 | 0.00 | 76 | 943.8 |
| 20260507102904 | 55 | 281 | 6.1 | 10.4 | 0.00 | 0.28 | 0.00 | 75 | 943.8 |
| 20260507102403 | 55 | 262 | 4.3 | 10.4 | 0.00 | 0.28 | 0.00 | 75 | 943.8 |
| 20260507101404 | 54 | 257 | 6.1 | 7.8 | 0.00 | 0.28 | 0.00 | 78 | 943.8 |
| 20260507100404 | 54 | 254 | 5.2 | 8.7 | 0.00 | 0.28 | 0.00 | 77 | 943.8 |
| 20260507095903 | 53 | 252 | 5.2 | 8.7 | 0.00 | 0.28 | 0.00 | 80 | 943.8 |
| 20260507095403 | 53 | 268 | 7.8 | 10.4 | 0.00 | 0.28 | 0.00 | 80 | 943.9 |
| 20260507094904 | 53 | 225 | 7.8 | 13.0 | 0.00 | 0.28 | 0.00 | 82 | 943.9 |
| 20260507093904 | 52 | 260 | 7.0 | 13.0 | 0.00 | 0.28 | 0.00 | 82 | 943.8 |
| 20260507093404 | 52 | 249 | 7.0 | 11.3 | 0.00 | 0.28 | 0.00 | 82 | 943.8 |
| 20260507092904 | 52 | 261 | 7.0 | 11.3 | 0.00 | 0.28 | 0.00 | 82 | 943.8 |
| 20260507092404 | 51 | 256 | 5.2 | 11.3 | 0.00 | 0.28 | 0.00 | 83 | 943.8 |
| 20260507085904 | 51 | 268 | 4.3 | 7.8 | 0.00 | 0.28 | 0.00 | 85 | 943.6 |
| 20260507085403 | 51 | 250 | 2.6 | 6.1 | 0.00 | 0.28 | 0.00 | 87 | 943.6 |
| 20260507084903 | 51 | 245 | 2.6 | 6.1 | 0.00 | 0.28 | 0.00 | 86 | 943.6 |
| 20260507084404 | 51 | 244 | 2.6 | 6.1 | 0.00 | 0.28 | 0.00 | 87 | 943.6 |
| 20260507083904 | 51 | 261 | 2.6 | 6.1 | 0.00 | 0.28 | 0.00 | 86 | 943.5 |
| 20260507083403 | 51 | 234 | 5.2 | 6.1 | 0.00 | 0.28 | 0.00 | 87 | 943.5 |
| 20260507082904 | 51 | 243 | 5.2 | 8.7 | 0.00 | 0.28 | 0.00 | 86 | 943.5 |
| 20260507082403 | 51 | 214 | 6.1 | 8.7 | 0.00 | 0.28 | 0.00 | 85 | 943.5 |
| 20260507081904 | 51 | 239 | 6.1 | 7.8 | 0.00 | 0.28 | 0.00 | 85 | 943.5 |
| 20260507081403 | 51 | 265 | 2.6 | 7.8 | 0.00 | 0.28 | 0.00 | 84 | 943.5 |
| 20260507080403 | 51 | 260 | 0.9 | 6.1 | 0.00 | 0.28 | 0.00 | 87 | 943.4 |
| 20260507075903 | 51 | 243 | 0.0 | 0.0 | 0.00 | 0.28 | 0.00 | 88 | 943.4 |
| 20260507074404 | 51 | 273 | 0.0 | 0.0 | 0.00 | 0.28 | 0.00 | 89 | 943.4 |
| 20260507073903 | 51 | 273 | 0.0 | 0.0 | 0.00 | 0.28 | 0.00 | 89 | 943.3 |
| 20260507073404 | 51 | 273 | 0.9 | 0.0 | 0.00 | 0.28 | 0.00 | 88 | 943.3 |
| 20260507072904 | 51 | 273 | 0.9 | 0.0 | 0.00 | 0.28 | 0.00 | 88 | 943.3 |
| 20260507072403 | 51 | 256 | 0.0 | 0.0 | 0.00 | 0.28 | 0.00 | 88 | 943.2 |
| 20260507071904 | 51 | 299 | 0.0 | 0.0 | 0.00 | 0.28 | 0.00 | 89 | 943.2 |
| 20260507071404 | 51 | 2 | 0.0 | 0.0 | 0.00 | 0.28 | 0.00 | 92 | 943.2 |
| 20260507070403 | 50 | 93 | 0.0 | 0.0 | 0.00 | 0.28 | 0.00 | 92 | 943.2 |
| 20260507065404 | 50 | 92 | 0.0 | 0.0 | 0.00 | 0.28 | 0.00 | 91 | 943.0 |
| 20260507064403 | 50 | 92 | 0.0 | 0.0 | 0.00 | 0.28 | 0.00 | 91 | 943.0 |
| 20260507063903 | 50 | 88 | 0.0 | 0.0 | 0.00 | 0.28 | 0.00 | 91 | 942.9 |
| 20260507063404 | 49 | 88 | 0.0 | 0.0 | 0.00 | 0.28 | 0.00 | 91 | 942.9 |
| 20260507062904 | 49 | 88 | 0.0 | 0.0 | 0.00 | 0.28 | 0.00 | 91 | 942.9 |
| 20260507062404 | 49 | 88 | 0.0 | 0.0 | 0.00 | 0.28 | 0.00 | 91 | 942.8 |
| 20260507061404 | 49 | 88 | 0.0 | 0.0 | 0.00 | 0.28 | 0.00 | 91 | 942.8 |
| 20260507060903 | 49 | 88 | 0.0 | 0.0 | 0.00 | 0.28 | 0.00 | 90 | 942.7 |
| 20260507055403 | 49 | 88 | 0.0 | 0.0 | 0.00 | 0.28 | 0.00 | 89 | 942.6 |
| 20260507054904 | 49 | 88 | 0.0 | 0.0 | 0.00 | 0.28 | 0.00 | 89 | 942.6 |
| 20260507054404 | 49 | 88 | 1.7 | 0.0 | 0.00 | 0.28 | 0.00 | 89 | 942.6 |
| 20260507053904 | 48 | 255 | 1.7 | 4.3 | 0.00 | 0.28 | 0.00 | 88 | 942.4 |
| 20260507053404 | 48 | 255 | 1.7 | 4.3 | 0.00 | 0.28 | 0.00 | 88 | 942.4 |
| 20260507052904 | 48 | 255 | 1.7 | 4.3 | 0.00 | 0.28 | 0.00 | 87 | 942.4 |
| 20260507051904 | 48 | 237 | 2.6 | 7.8 | 0.00 | 0.28 | 0.00 | 87 | 942.3 |
| 20260507051403 | 48 | 227 | 0.0 | 5.2 | 0.00 | 0.28 | 0.00 | 88 | 942.3 |
| 20260507050904 | 48 | 257 | 0.0 | 5.2 | 0.00 | 0.28 | 0.00 | 88 | 942.1 |
| 20260507045903 | 48 | 237 | 0.0 | 0.0 | 0.00 | 0.28 | 0.00 | 88 | 942.1 |
| 20260507044903 | 48 | 238 | 0.0 | 0.0 | 0.00 | 0.28 | 0.00 | 89 | 942.0 |
| 20260507044403 | 48 | 236 | 0.0 | 0.0 | 0.00 | 0.28 | 0.00 | 89 | 942.0 |
| 20260507043903 | 48 | 234 | 0.0 | 0.0 | 0.00 | 0.28 | 0.00 | 89 | 941.9 |
| 20260507043404 | 48 | 233 | 0.0 | 0.0 | 0.00 | 0.28 | 0.00 | 89 | 941.9 |
| 20260507042904 | 48 | 233 | 0.0 | 0.0 | 0.00 | 0.28 | 0.00 | 88 | 941.9 |
| 20260507042404 | 48 | 234 | 1.7 | 1.7 | 0.00 | 0.28 | 0.00 | 88 | 941.8 |
| 20260507041904 | 48 | 234 | 1.7 | 2.6 | 0.00 | 0.28 | 0.00 | 87 | 941.8 |
| 20260507040404 | 48 | 235 | 0.0 | 0.0 | 0.00 | 0.28 | 0.00 | 87 | 941.8 |
| 20260507035903 | 48 | 235 | 0.0 | 0.0 | 0.00 | 0.28 | 0.00 | 86 | 941.8 |
| 20260507033903 | 48 | 233 | 1.7 | 4.3 | 0.00 | 0.28 | 0.00 | 85 | 941.5 |
| 20260507032404 | 48 | 211 | 0.0 | 0.0 | 0.00 | 0.28 | 0.00 | 85 | 941.5 |
| 20260507031404 | 48 | 265 | 0.0 | 0.0 | 0.00 | 0.28 | 0.00 | 85 | 941.5 |
| 20260507030903 | 48 | 263 | 0.0 | 0.0 | 0.00 | 0.28 | 0.00 | 84 | 941.5 |
| 20260507030403 | 48 | 262 | 1.7 | 1.7 | 0.00 | 0.28 | 0.00 | 84 | 941.5 |
| 20260507025903 | 48 | 263 | 1.7 | 4.3 | 0.00 | 0.28 | 0.00 | 84 | 941.5 |
| 20260507025404 | 48 | 263 | 3.5 | 5.2 | 0.00 | 0.28 | 0.00 | 84 | 941.4 |
| 20260507024903 | 48 | 227 | 4.3 | 6.1 | 0.00 | 0.28 | 0.00 | 84 | 941.4 |
| 20260507024404 | 48 | 249 | 4.3 | 6.1 | 0.00 | 0.28 | 0.00 | 84 | 941.4 |
| 20260507023904 | 48 | 248 | 4.3 | 6.1 | 0.00 | 0.28 | 0.00 | 84 | 941.4 |
| 20260507023404 | 48 | 240 | 5.2 | 6.1 | 0.00 | 0.28 | 0.00 | 84 | 941.4 |
| 20260507022903 | 48 | 254 | 5.2 | 7.0 | 0.00 | 0.28 | 0.00 | 83 | 941.4 |
| 20260507022403 | 48 | 226 | 5.2 | 7.0 | 0.00 | 0.28 | 0.00 | 83 | 941.3 |
| 20260507021904 | 48 | 226 | 5.2 | 7.8 | 0.00 | 0.28 | 0.00 | 83 | 941.3 |
| 20260507021404 | 48 | 225 | 6.1 | 7.8 | 0.00 | 0.28 | 0.00 | 83 | 941.3 |
| 20260507020904 | 48 | 224 | 6.1 | 8.7 | 0.00 | 0.28 | 0.00 | 83 | 941.2 |
| 20260507020404 | 48 | 225 | 6.1 | 8.7 | 0.00 | 0.28 | 0.00 | 83 | 941.2 |
| 20260507015404 | 48 | 226 | 4.3 | 10.4 | 0.00 | 0.28 | 0.00 | 83 | 941.1 |
| 20260507014903 | 48 | 220 | 4.3 | 7.0 | 0.00 | 0.28 | 0.00 | 84 | 941.1 |
| 20260507014404 | 48 | 223 | 4.3 | 7.0 | 0.00 | 0.28 | 0.00 | 84 | 941.1 |
| 20260507013903 | 48 | 232 | 4.3 | 6.1 | 0.00 | 0.28 | 0.00 | 84 | 941.0 |
| 20260507013404 | 48 | 242 | 2.6 | 7.8 | 0.00 | 0.28 | 0.00 | 84 | 941.0 |
| 20260507012403 | 48 | 242 | 4.3 | 5.2 | 0.00 | 0.28 | 0.00 | 85 | 941.0 |
| 20260507011904 | 48 | 263 | 4.3 | 5.2 | 0.00 | 0.28 | 0.00 | 85 | 941.0 |
| 20260507011403 | 48 | 248 | 4.3 | 6.1 | 0.00 | 0.28 | 0.00 | 85 | 941.0 |
| 20260507010904 | 48 | 256 | 4.3 | 6.1 | 0.00 | 0.28 | 0.00 | 85 | 940.9 |
| 20260507010404 | 48 | 227 | 5.2 | 6.1 | 0.00 | 0.28 | 0.00 | 85 | 940.9 |
| 20260507005903 | 48 | 244 | 5.2 | 6.1 | 0.00 | 0.28 | 0.00 | 85 | 940.9 |
| 20260507005404 | 48 | 219 | 5.2 | 6.1 | 0.00 | 0.28 | 0.00 | 85 | 940.9 |
| 20260507004904 | 48 | 223 | 5.2 | 7.8 | 0.00 | 0.28 | 0.00 | 85 | 940.9 |
| 20260507003903 | 48 | 226 | 6.1 | 7.8 | 0.00 | 0.28 | 0.00 | 86 | 940.9 |
| 20260507003404 | 48 | 229 | 5.2 | 7.0 | 0.00 | 0.28 | 0.00 | 86 | 940.9 |
| 20260507002903 | 48 | 247 | 5.2 | 7.0 | 0.00 | 0.28 | 0.00 | 86 | 940.9 |
| 20260507001904 | 47 | 237 | 6.1 | 11.3 | 0.00 | 0.28 | 0.00 | 88 | 940.9 |
| 20260507001404 | 47 | 230 | 5.2 | 7.8 | 0.00 | 0.28 | 0.00 | 88 | 940.9 |
| 20260507000903 | 47 | 231 | 4.3 | 7.8 | 0.00 | 0.28 | 0.00 | 88 | 940.8 |
| 20260507000405 | 47 | 247 | 4.3 | 7.8 | 0.00 | 0.28 | 0.00 | 88 | 940.8 |
| 20260506235903 | 47 | 234 | 4.3 | 5.2 | 0.00 | 0.28 | 0.00 | 89 | 940.8 |
| 20260506235403 | 47 | 259 | 4.3 | 6.1 | 0.00 | 0.28 | 0.00 | 89 | 940.7 |
| 20260506234904 | 47 | 253 | 4.3 | 6.1 | 0.00 | 0.28 | 0.00 | 89 | 940.7 |
| 20260506234404 | 47 | 240 | 1.7 | 6.1 | 0.00 | 0.28 | 0.00 | 88 | 940.7 |
| 20260506233904 | 47 | 233 | 0.0 | 6.1 | 0.00 | 0.28 | 0.00 | 88 | 940.7 |
| 20260506232903 | 47 | 231 | 0.0 | 0.0 | 0.00 | 0.28 | 0.00 | 88 | 940.7 |
| 20260506232404 | 47 | 226 | 0.0 | 0.0 | 0.00 | 0.28 | 0.00 | 87 | 940.7 |
| 20260506231904 | 48 | 224 | 0.0 | 0.0 | 0.00 | 0.28 | 0.00 | 87 | 940.7 |
| 20260506231403 | 48 | 224 | 0.9 | 0.0 | 0.00 | 0.28 | 0.00 | 87 | 940.7 |
| 20260506230904 | 48 | 226 | 0.9 | 0.0 | 0.00 | 0.28 | 0.00 | 87 | 940.5 |
| 20260506230404 | 48 | 226 | 1.7 | 4.3 | 0.00 | 0.28 | 0.00 | 87 | 940.5 |
| 20260506225403 | 48 | 218 | 2.6 | 5.2 | 0.00 | 0.28 | 0.00 | 87 | 940.5 |
| 20260506224903 | 48 | 210 | 2.6 | 5.2 | 0.00 | 0.28 | 0.00 | 87 | 940.5 |
| 20260506224404 | 48 | 253 | 2.6 | 5.2 | 0.00 | 0.28 | 0.00 | 88 | 940.5 |
| 20260506223904 | 48 | 256 | 2.6 | 5.2 | 0.00 | 0.28 | 0.00 | 88 | 940.6 |
| 20260506223404 | 48 | 228 | 2.6 | 4.3 | 0.00 | 0.28 | 0.00 | 87 | 940.6 |
| 20260506222903 | 48 | 244 | 2.6 | 4.3 | 0.00 | 0.28 | 0.00 | 88 | 940.6 |
| 20260506222404 | 48 | 248 | 2.6 | 4.3 | 0.00 | 0.28 | 0.00 | 89 | 940.5 |
| 20260506221904 | 47 | 229 | 2.6 | 4.3 | 0.00 | 0.28 | 0.00 | 89 | 940.5 |
| 20260506220904 | 47 | 229 | 2.6 | 4.3 | 0.00 | 0.28 | 0.00 | 89 | 940.6 |
| 20260506220403 | 47 | 262 | 2.6 | 4.3 | 0.00 | 0.28 | 0.00 | 90 | 940.6 |
| 20260506215904 | 47 | 228 | 2.6 | 4.3 | 0.00 | 0.28 | 0.28 | 90 | 940.6 |
| 20260506215404 | 47 | 226 | 3.5 | 4.3 | 0.00 | 0.28 | 0.28 | 90 | 940.6 |
| 20260506214903 | 47 | 221 | 4.3 | 5.2 | 0.00 | 0.28 | 0.28 | 90 | 940.6 |
| 20260506213904 | 47 | 230 | 4.3 | 6.1 | 0.00 | 0.28 | 0.28 | 90 | 940.4 |
| 20260506213404 | 47 | 224 | 2.6 | 5.2 | 0.00 | 0.28 | 0.28 | 90 | 940.4 |
| 20260506212903 | 47 | 230 | 0.9 | 4.3 | 0.00 | 0.28 | 0.28 | 90 | 940.4 |
| 20260506212403 | 47 | 224 | 1.7 | 4.3 | 0.00 | 0.28 | 0.28 | 90 | 940.5 |
| 20260506211903 | 47 | 221 | 1.7 | 2.6 | 0.00 | 0.28 | 0.28 | 90 | 940.5 |
| 20260506210903 | 47 | 216 | 2.6 | 4.3 | 0.00 | 0.28 | 0.28 | 89 | 940.6 |
| 20260506210403 | 47 | 210 | 2.6 | 4.3 | 0.00 | 0.28 | 0.28 | 89 | 940.6 |
| 20260506205903 | 47 | 220 | 2.6 | 4.3 | 0.00 | 0.28 | 0.28 | 89 | 940.6 |
| 20260506204904 | 47 | 217 | 0.9 | 4.3 | 0.00 | 0.28 | 0.28 | 88 | 940.4 |
| 20260506204403 | 47 | 213 | 0.9 | 2.6 | 0.00 | 0.28 | 0.28 | 88 | 940.4 |
| 20260506203903 | 47 | 216 | 0.0 | 2.6 | 0.00 | 0.28 | 0.28 | 87 | 940.4 |
| 20260506203404 | 47 | 215 | 0.0 | 1.7 | 0.00 | 0.28 | 0.28 | 87 | 940.4 |
| 20260506202904 | 48 | 216 | 0.0 | 0.0 | 0.00 | 0.28 | 0.28 | 88 | 940.4 |
| 20260506202404 | 48 | 216 | 0.0 | 0.0 | 0.00 | 0.28 | 0.28 | 87 | 940.4 |
| 20260506201903 | 48 | 216 | 0.0 | 0.0 | 0.00 | 0.28 | 0.28 | 87 | 940.4 |
| 20260506200904 | 48 | 216 | 0.0 | 0.0 | 0.00 | 0.28 | 0.28 | 86 | 940.4 |
| 20260506200403 | 48 | 216 | 0.0 | 0.0 | 0.00 | 0.28 | 0.28 | 86 | 940.4 |
| 20260506195904 | 48 | 216 | 0.0 | 0.0 | 0.00 | 0.28 | 0.28 | 85 | 940.4 |
| 20260506195404 | 49 | 214 | 0.9 | 1.7 | 0.00 | 0.28 | 0.28 | 84 | 940.1 |
| 20260506194903 | 49 | 216 | 1.7 | 4.3 | 0.00 | 0.28 | 0.28 | 84 | 940.1 |
| 20260506194404 | 49 | 215 | 1.7 | 4.3 | 0.00 | 0.28 | 0.28 | 83 | 940.1 |
| 20260506193403 | 49 | 225 | 1.7 | 4.3 | 0.00 | 0.28 | 0.28 | 83 | 940.1 |
| 20260506192904 | 49 | 235 | 1.7 | 6.1 | 0.00 | 0.28 | 0.28 | 83 | 940.1 |
| 20260506192404 | 49 | 236 | 2.6 | 6.1 | 0.00 | 0.28 | 0.28 | 83 | 939.8 |
| 20260506191903 | 49 | 231 | 2.6 | 5.2 | 0.00 | 0.28 | 0.28 | 82 | 939.8 |
| 20260506191403 | 49 | 226 | 2.6 | 5.2 | 0.00 | 0.28 | 0.28 | 82 | 939.8 |
| 20260506190903 | 49 | 231 | 2.6 | 5.2 | 0.00 | 0.28 | 0.28 | 82 | 939.7 |
| 20260506190404 | 50 | 265 | 2.6 | 6.1 | 0.00 | 0.28 | 0.28 | 81 | 939.7 |
| 20260506185904 | 50 | 208 | 1.7 | 6.1 | 0.00 | 0.28 | 0.28 | 81 | 939.7 |
| 20260506185404 | 50 | 211 | 1.7 | 2.6 | 0.00 | 0.28 | 0.28 | 81 | 939.5 |
| 20260506184904 | 50 | 195 | 1.7 | 4.3 | 0.00 | 0.28 | 0.28 | 80 | 939.5 |
| 20260506184404 | 51 | 248 | 1.7 | 4.3 | 0.00 | 0.28 | 0.28 | 80 | 939.5 |
| 20260506182904 | 51 | 240 | 0.9 | 0.9 | 0.00 | 0.28 | 0.28 | 79 | 939.4 |
| 20260506182404 | 52 | 243 | 0.9 | 4.3 | 0.00 | 0.28 | 0.28 | 80 | 939.3 |